Tracking 30258 objects as of 19-Feb-2025
HD Live streaming from Space Station
objects crossing your sky now

INTELSAT 3-F4

Track INTELSAT 3-F4 now!
INTELSAT 3-F4 is classified as:


NORAD ID: 3947
Int'l Code: 1969-045A
Perigee: 38,818.4 km
Apogee: 39,039.4 km
Inclination: 5.1 °
Period: 1,599.2 minutes
Semi major axis: 45299 km
RCS: 2.5125 m2 (large)
Launch date: May 22, 1969
Source: International Telecommunications Satellite Organization (ITSO)
Launch site: AIR FORCE EASTERN TEST RANGE (AFETR)
Your satellite tracking list
Your tracking list is empty




NASA's NSSDC Master Catalog

Two Line Element Set (TLE):
1 03947U 69045A   25050.13447755 -.00000088  00000-0  00000-0 0  9992
2 03947   5.0642 289.8041 0024389  67.2755 142.5506  0.90044572 61610
Source of the keplerian elements: AFSPC